Wind_Speed
21 23 25 27 28 30 31 33 34 35 37 37 37 37 38 40 40 40 40 39 38 36 33 32 31 29 27 25 23 22 21 22 23 23 22 22 22 21 20 20 19 20 20 21
20 23 25 27 29 31 32 34 36 37 38 39 38 38 40 41 42 42 42 42 41 39 37 35 34 32 30 28 26 24 24 24 25 25 25 25 24 23 23 22 22 22 22 22
18 22 24 27 29 31 33 35 36 37 38 39 39 38 39 40 40 41 41 41 41 40 39 38 36 34 32 31 29 27 27 27 28 28 28 27 26 26 25 24 23 23 22 23
18 21 24 26 29 31 32 34 36 36 37 37 37 37 35 35 35 36 37 37 37 38 37 37 37 35 34 33 32 31 31 30 31 32 31 30 29 28 26 24 24 23 23 24
18 21 24 27 29 32 33 34 35 36 36 36 34 35 33 32 32 33 34 35 35 35 35 35 35 35 35 34 35 34 33 35 35 35 35 34 30 27 24 23 23 23 23 23
22 26 29 31 34 36 37 37 37 37 37 37 34 34 34 32 30 30 31 32 33 33 33 33 34 35 35 36 37 36 37 38 37 38 39 34 26 23 22 22 21 22 22 23
28 31 34 36 38 40 41 41 41 41 39 37 34 33 32 29 28 27 27 28 29 31 31 31 32 34 35 36 36 36 39 38 39 38 35 27 22 19 19 19 20 21 22 22
31 34 37 39 41 42 41 41 41 41 39 36 32 30 29 27 26 26 26 26 27 28 29 30 31 32 33 35 35 36 37 37 35 32 28 22 18 17 17 17 18 20 21 22
34 36 38 40 40 40 39 38 38 38 36 33 31 28 27 26 25 24 25 24 24 26 27 28 28 28 29 31 33 34 34 32 29 24 20 18 16 17 17 18 19 21 21 22
37 37 37 38 37 35 34 32 30 30 29 27 25 23 23 21 21 21 21 21 20 21 22 24 24 25 26 26 27 28 27 24 21 17 16 16 16 17 17 18 20 21 22 23
36 35 34 33 31 28 25 23 21 20 19 19 19 18 15 15 16 16 16 16 15 14 16 16 18 19 20 21 18 18 17 16 15 15 14 14 15 17 18 20 21 22 23 24
34 32 29 27 25 22 19 15 12 10 10 12 13 12 11 11 10 9 8 9 10 10 10 10 12 13 15 15 12 11 11 11 11 11 13 14 16 18 20 22 23 23 24 25
31 29 26 23 21 19 16 11 7 3 2 3 5 5 5 4 4 4 4 3 3 3 3 3 5 7 8 9 9 8 9 9 10 12 14 16 19 20 22 23 24 24 24 24
30 28 26 24 22 19 15 11 7 5 6 5 4 4 4 2 1 2 4 4 3 2 2 2 2 4 4 5 6 8 9 11 12 14 16 18 19 20 21 21 21 22 22 23
29 28 27 24 23 21 19 15 13 10 11 10 8 8 6 5 5 5 7 8 7 5 4 4 3 3 3 4 5 8 11 13 14 16 18 20 20 19 19 18 18 19 19 20
28 27 26 24 23 21 19 18 16 15 14 13 11 10 9 10 9 8 9 10 9 9 7 6 4 2 1 3 6 8 10 12 13 16 18 18 17 17 16 16 15 16 17 17
27 26 25 23 21 20 19 17 15 14 14 13 11 11 11 11 11 10 10 11 11 10 10 8 7 5 4 4 5 6 8 10 12 13 14 14 15 15 15 15 15 15 17 18
25 25 24 22 20 19 18 17 15 15 14 13 12 12 12 11 11 11 11 11 12 12 12 11 9 8 7 7 7 7 9 10 11 12 13 14 15 15 16 15 15 16 17 18
23 23 22 21 19 18 17 16 15 13 13 12 11 11 11 11 11 10 11 11 11 11 11 11 10 9 9 9 9 10 10 11 12 14 15 16 16 16 16 16 16 17 17 18
22 21 20 19 18 16 15 14 13 12 11 11 10 10 10 11 10 10 10 10 11 11 10 10 10 10 10 11 11 11 12 13 14 15 16 16 16 16 16 16 17 17 17 18
22 19 17 17 16 15 14 13 12 10 9 9 9 9 9 9 9 9 9 9 10 10 10 11 11 11 12 12 13 13 14 14 15 15 16 16 16 16 16 16 17 17 17 18
22 19 17 15 15 14 12 11 11 9 8 7 7 7 7 7 8 8 8 9 9 10 10 11 12 13 13 14 15 16 16 16 17 17 16 16 15 15 16 16 16 16 16 16
21 20 17 16 15 14 11 10 9 8 7 6 5 5 5 5 6 7 8 9 10 11 12 13 14 14 15 16 17 18 18 18 18 18 17 16 16 15 15 14 14 14 14 14
22 20 17 16 15 14 12 10 8 7 6 5 4 4 4 4 4 6 7 9 10 12 13 14 15 16 17 18 19 19 19 19 19 18 18 17 16 15 14 14 13 13 12 12
22 21 18 16 16 14 12 9 8 7 6 5 3 3 3 3 4 5 7 9 11 12 14 15 16 16 17 18 19 19 19 19 19 18 18 17 16 15 14 13 13 12 11 11
20 21 20 18 17 16 13 10 8 6 5 4 4 4 4 3 3 5 6 8 10 12 13 15 16 17 18 18 19 19 19 19 18 18 18 17 16 15 14 14 13 12 12 12
Wind_Direction
248 253 256 258 260 262 264 266 267 268 269 269 270 271 271 271 271 271 271 271 272 272 271 272 273 274 274 273 276 276 276 275 274 273 272 270 270 269 270 270 271 272 274 275
256 259 262 264 265 266 267 268 269 269 270 271 271 271 271 271 271 272 271 271 271 270 269 268 269 270 270 269 268 270 270 270 270 269 269 267 266 267 267 268 267 269 270 272
264 265 267 269 269 270 270 271 271 271 272 273 272 272 272 273 273 273 272 271 270 268 267 265 265 264 263 264 263 263 264 266 267 266 264 262 262 262 263 265 267 268 269 270
271 273 274 275 275 274 274 274 274 274 274 274 274 274 273 274 275 275 274 273 271 268 266 263 260 258 258 257 255 255 257 260 260 260 259 256 255 255 257 262 265 267 268 269
285 284 283 282 281 279 278 277 276 276 276 276 277 279 278 278 278 278 277 275 273 269 264 260 256 254 253 251 251 252 251 253 253 254 256 252 251 251 255 260 264 266 268 270
295 292 290 288 285 283 282 280 279 278 277 278 280 281 281 282 281 279 277 275 273 268 263 257 253 250 249 248 248 248 250 249 247 250 251 249 248 252 256 259 264 267 269 272
302 299 295 291 289 287 285 284 282 280 279 281 281 281 282 283 282 279 277 275 271 267 260 254 250 247 246 246 247 247 248 246 245 245 247 249 251 253 257 262 267 270 272 274
309 304 300 296 292 289 286 283 282 282 282 283 283 282 282 283 282 280 278 276 270 264 258 253 248 246 245 245 246 247 247 245 243 245 248 252 254 257 260 265 270 274 277 281
318 313 307 302 298 294 289 284 280 278 277 277 278 279 279 281 281 280 280 277 273 266 257 252 248 245 243 244 246 246 248 247 247 248 252 255 259 262 267 273 276 280 284 286
325 320 315 312 308 302 297 291 284 277 274 273 272 271 274 277 280 281 281 279 274 269 256 252 250 248 248 245 246 250 245 240 238 246 252 257 262 267 273 278 281 284 287 288
332 330 327 323 319 314 308 300 289 278 270 265 262 259 268 277 280 281 280 277 271 265 266 256 250 249 247 245 242 233 230 228 234 242 249 258 268 274 279 281 283 285 287 286
344 344 344 343 341 338 333 322 305 284 262 252 253 257 258 275 283 279 281 276 267 269 273 265 257 253 246 238 228 219 227 231 236 248 258 268 277 281 283 282 283 284 285 284
0 1 1 1 360 358 357 355 349 325 249 228 224 236 244 269 286 294 307 299 260 286 297 276 249 234 227 223 223 221 227 244 258 266 273 277 280 284 287 285 283 282 282 282
11 12 13 14 15 17 21 30 38 73 94 104 128 129 149 154 112 47 40 56 74 68 49 81 149 178 189 211 221 229 245 256 266 273 275 279 283 286 288 287 284 282 282 280
16 18 21 24 28 34 41 51 63 84 98 101 102 104 106 103 94 68 59 63 66 69 69 85 118 155 190 222 243 258 264 267 272 276 279 284 286 290 291 287 285 283 282 281
21 24 27 31 35 41 48 59 72 85 93 95 93 89 89 91 79 66 66 68 65 65 63 68 80 80 336 278 272 272 272 276 281 284 286 290 291 294 292 290 286 283 281 281
23 24 30 34 37 46 58 63 73 84 92 93 88 82 81 81 77 75 72 67 63 66 60 54 48 38 12 346 323 302 291 291 295 297 297 298 297 298 297 295 292 288 282 280
24 26 30 34 39 48 55 61 70 77 81 82 82 81 78 73 74 70 66 65 63 63 59 53 47 39 23 7 349 333 322 315 312 308 305 303 302 303 300 296 294 292 288 282
21 25 29 34 40 46 52 56 64 71 74 72 77 79 76 73 72 70 67 63 59 57 52 46 38 28 17 4 351 339 330 322 315 310 307 305 304 304 301 294 291 289 288 285
20 24 29 34 38 43 46 48 53 59 66 65 70 71 70 72 71 69 64 57 52 48 43 36 26 15 6 357 348 340 332 324 318 313 310 307 304 302 298 295 292 289 287 286
19 20 23 27 30 35 38 41 43 48 55 60 62 64 72 76 71 63 57 51 45 40 33 25 16 8 1 355 349 343 338 332 327 322 317 312 308 305 302 300 296 293 291 289
17 18 19 20 21 23 26 32 37 40 47 50 52 60 72 70 62 53 46 39 35 30 25 18 10 5 2 358 353 348 343 339 334 330 326 321 317 314 311 307 303 300 298 294
16 16 16 17 17 15 16 19 25 31 37 39 39 50 62 57 52 42 34 29 26 24 19 14 10 7 4 0 356 351 348 345 343 340 337 333 329 326 322 319 315 312 308 303
13 12 12 13 11 7 7 8 11 15 21 26 29 39 44 45 36 26 25 23 21 19 16 14 11 8 4 1 358 356 354 352 351 350 348 345 342 339 336 332 329 326 321 317
12 12 11 10 7 4 0 359 2 3 5 7 9 11 9 8 11 15 18 18 17 16 14 13 12 9 6 3 2 0 359 358 358 358 358 357 356 354 352 349 346 344 341 337
7 9 11 10 8 5 360 352 347 344 343 343 345 348 348 345 354 8 14 16 15 14 13 14 13 11 9 7 7 6 6 5 5 6 7 8 8 7 7 6 5 4 3 1
Height
5859 5859 5858 5858 5858 5857 5857 5856 5856 5855 5854 5854 5854 5854 5853 5851 5851 5852 5852 5853 5854 5856 5857 5857 5858 5858 5858 5858 5858 5858 5857 5856 5856 5855 5854 5854 5854 5854 5854 5854 5855 5855 5855 5855
5856 5854 5853 5852 5851 5850 5849 5848 5848 5847 5845 5845 5845 5845 5843 5842 5842 5842 5843 5844 5845 5847 5848 5849 5850 5850 5851 5852 5852 5852 5852 5851 5850 5849 5849 5848 5848 5848 5848 5848 5848 5849 5849 5849
5851 5850 5848 5847 5845 5843 5842 5840 5839 5838 5836 5835 5835 5836 5834 5832 5832 5832 5833 5833 5834 5836 5838 5839 5841 5842 5843 5844 5845 5845 5845 5845 5844 5843 5842 5841 5841 5841 5841 5842 5842 5843 5843 5843
5847 5845 5843 5841 5838 5836 5834 5832 5830 5828 5827 5826 5826 5825 5825 5824 5823 5822 5822 5823 5824 5825 5827 5829 5830 5832 5834 5835 5836 5837 5838 5837 5837 5836 5835 5834 5834 5834 5835 5836 5837 5837 5838 5838
5843 5840 5837 5835 5832 5828 5825 5823 5821 5819 5817 5817 5816 5815 5816 5816 5815 5814 5813 5813 5814 5815 5816 5818 5820 5822 5824 5825 5827 5828 5829 5829 5829 5829 5828 5826 5825 5826 5828 5830 5831 5831 5832 5832
5839 5835 5832 5828 5823 5820 5816 5814 5811 5810 5808 5807 5807 5806 5806 5806 5806 5805 5804 5804 5805 5805 5807 5808 5810 5812 5814 5815 5817 5818 5820 5820 5820 5820 5820 5819 5818 5820 5822 5824 5824 5825 5826 5826
5834 5828 5823 5819 5814 5810 5805 5803 5800 5798 5797 5797 5797 5797 5798 5797 5797 5797 5797 5797 5797 5797 5798 5799 5801 5802 5804 5805 5807 5809 5811 5811 5810 5810 5811 5811 5812 5814 5816 5817 5818 5819 5820 5820
5827 5821 5814 5807 5802 5798 5794 5791 5789 5787 5786 5786 5787 5788 5790 5789 5789 5789 5789 5789 5789 5789 5790 5791 5792 5794 5795 5797 5799 5800 5801 5802 5801 5802 5803 5805 5806 5808 5810 5811 5812 5814 5814 5814
5819 5812 5803 5796 5789 5784 5780 5777 5776 5775 5775 5777 5778 5780 5781 5782 5782 5782 5782 5782 5782 5782 5783 5784 5785 5786 5787 5788 5789 5791 5792 5794 5795 5796 5798 5799 5801 5803 5804 5805 5807 5808 5808 5808
5811 5802 5794 5785 5778 5771 5768 5765 5764 5764 5765 5767 5770 5772 5775 5776 5776 5776 5776 5776 5776 5776 5777 5778 5780 5781 5781 5781 5781 5783 5785 5788 5790 5792 5794 5795 5797 5799 5800 5801 5802 5803 5803 5803
5803 5795 5786 5776 5769 5763 5760 5757 5755 5756 5758 5761 5764 5769 5769 5771 5772 5772 5772 5772 5772 5772 5772 5773 5774 5775 5776 5777 5777 5779 5781 5784 5786 5789 5791 5792 5794 5795 5796 5796 5797 5797 5797 5797
5798 5789 5780 5772 5765 5759 5754 5752 5751 5752 5754 5756 5760 5766 5766 5768 5768 5769 5769 5769 5769 5768 5769 5769 5770 5772 5773 5775 5776 5777 5780 5782 5784 5786 5788 5789 5791 5792 5792 5792 5792 5792 5792 5791
5795 5787 5779 5771 5767 5760 5755 5751 5750 5751 5753 5755 5758 5765 5764 5766 5767 5767 5767 5767 5767 5767 5767 5767 5768 5770 5772 5773 5776 5778 5780 5781 5783 5785 5786 5787 5788 5788 5788 5787 5787 5787 5786 5785
5795 5786 5780 5773 5766 5760 5756 5753 5752 5753 5754 5756 5759 5763 5765 5766 5767 5767 5767 5766 5767 5767 5767 5768 5769 5770 5772 5773 5776 5777 5779 5781 5782 5783 5784 5784 5784 5783 5783 5782 5781 5781 5780 5779
5797 5789 5782 5775 5769 5764 5760 5758 5756 5757 5758 5760 5762 5764 5766 5767 5768 5768 5768 5767 5767 5768 5768 5769 5770 5771 5772 5774 5775 5777 5778 5779 5780 5780 5781 5780 5780 5779 5778 5777 5776 5775 5774 5773
5799 5793 5786 5780 5775 5770 5766 5764 5763 5763 5763 5765 5766 5768 5769 5770 5770 5770 5770 5770 5770 5770 5770 5771 5771 5772 5773 5774 5775 5776 5777 5777 5777 5777 5777 5777 5776 5775 5774 5772 5771 5770 5769 5769
5803 5797 5791 5785 5780 5776 5773 5771 5770 5769 5769 5770 5771 5772 5772 5773 5773 5773 5773 5772 5772 5772 5772 5773 5773 5773 5774 5774 5775 5775 5775 5775 5775 5774 5774 5773 5772 5771 5770 5768 5767 5765 5764 5764
5807 5801 5795 5790 5787 5783 5782 5777 5776 5775 5775 5775 5776 5776 5776 5777 5777 5776 5776 5775 5775 5775 5775 5775 5775 5775 5775 5775 5774 5774 5774 5773 5772 5771 5770 5769 5768 5766 5764 5763 5762 5761 5759 5758
5810 5805 5800 5796 5792 5789 5786 5783 5782 5781 5781 5780 5780 5780 5780 5780 5780 5780 5780 5779 5778 5778 5778 5778 5777 5777 5776 5775 5775 5774 5773 5771 5770 5768 5767 5765 5763 5761 5760 5758 5757 5756 5754 5753
5813 5809 5805 5801 5797 5794 5793 5790 5787 5787 5786 5785 5784 5784 5784 5784 5784 5784 5783 5782 5781 5781 5781 5780 5779 5778 5777 5776 5774 5773 5771 5769 5767 5765 5763 5761 5759 5757 5755 5754 5752 5750 5749 5747
5816 5812 5808 5805 5802 5799 5797 5794 5793 5792 5792 5789 5788 5788 5787 5787 5787 5787 5786 5785 5784 5783 5782 5781 5780 5779 5777 5775 5773 5771 5769 5766 5764 5761 5759 5756 5754 5752 5750 5748 5746 5745 5743 5741
5819 5815 5811 5808 5805 5805 5800 5797 5796 5795 5793 5792 5791 5791 5790 5790 5790 5789 5788 5788 5787 5786 5784 5782 5781 5778 5776 5774 5771 5769 5766 5763 5761 5758 5755 5752 5750 5747 5745 5743 5741 5739 5737 5736
5821 5818 5814 5811 5810 5805 5802 5800 5798 5797 5795 5795 5794 5793 5793 5792 5792 5792 5791 5790 5789 5787 5785 5783 5781 5778 5775 5773 5770 5767 5764 5761 5757 5754 5751 5748 5745 5743 5741 5739 5737 5734 5732 5730
5824 5820 5816 5813 5810 5807 5804 5801 5800 5798 5797 5796 5796 5795 5795 5794 5794 5793 5792 5791 5790 5788 5786 5784 5781 5778 5776 5772 5769 5766 5762 5759 5755 5752 5749 5746 5743 5740 5738 5735 5733 5731 5729 5726
5826 5822 5818 5814 5811 5808 5805 5803 5801 5800 5799 5798 5797 5797 5796 5796 5795 5795 5794 5793 5791 5789 5787 5785 5782 5779 5776 5773 5769 5765 5762 5758 5755 5751 5748 5745 5741 5739 5736 5734 5731 5729 5726 5724
5828 5824 5820 5817 5813 5810 5807 5804 5802 5801 5800 5799 5798 5798 5797 5797 5796 5796 5795 5794 5792 5791 5789 5786 5783 5780 5777 5773 5770 5766 5763 5759 5756 5752 5748 5745 5742 5739 5736 5733 5731 5728 5726 5723